Regional Weather Roundup
Issued by NWS Sterling, VA

Home | Current Version | Previous Version | Graphics & Text | Print | Product List | Glossary On
Versions: 1 2 3 4 5 6 7 8 9 10 11 12 13 14 15 16 17 18 19 20 21 22 23 24 25 26 27
000
ASUS41 KLWX 291210
RWRLWX

REGIONAL WEATHER ROUNDUP
NATIONAL WEATHER SERVICE BALTIMORE MD/WASHINGTON DC
800 AM EDT SUN MAY 29 2016

Note: "FAIR" indicates few or no clouds below 12,000 feet
with no significant weather and/or obstructions to visibility.
 TC=TEMPERATURE CELSIUS

 * =Non NWS site. Station does not report precipitation (e.g. rain,
    snow, etc.), thunder, or fog.

DCZ001-MDZ009-015-VAZ040>042-051-053>054-291300-
WASHINGTON METRO

CITY           SKY/WX    TMP DP  RH WIND       PRES   REMARKS
WASHINGTON NAT PTSUNNY   70  64  81 S6        30.16S
DULLES         PTSUNNY   70  64  81 SW5       30.15S
ANDREWS AFB    SUNNY     70  65  85 S5        30.15S
FT BELVOIR     FAIR      68  65  90 SE3       30.15S
QUANTICO       FAIR      69  64  84 S3        30.16S
COLLEGE PARK*  FAIR      70  61  73 S3        30.15S
LEESBURG*      FAIR      70  66  88 CALM      30.16S
MANASSAS*      SUNNY     66  66 100 CALM      30.15S

$$

MDZ006>007-011-014-291300-
BALTIMORE METRO

CITY           SKY/WX    TMP DP  RH WIND       PRES   REMARKS
BWI AIRPORT    MOSUNNY   68  62  81 CALM      30.15S
MD SCIENCE CTR   N/A     72  62  71 MISG      30.15F
MARTIN STATE   MOSUNNY   70  66  88 CALM      30.17S
ANNAPOLIS      MOSUNNY   68  66  93 SE5       30.15S
FORT MEADE*    MOSUNNY   64  61  88 CALM      30.18S

$$

MDZ012-015-019>023-291300-
MARYLAND EASTERN SHORE

CITY           SKY/WX    TMP DP  RH WIND       PRES   REMARKS
OCEAN CITY     FOG       67  66  97 CALM      30.16S VSB 1/4
SALISBURY      PTSUNNY   69  68  96 CALM      30.16S FOG
BAY BRIDGE AP* MOSUNNY   70  66  88 CALM      30.16S
CAMBRIDGE*       N/A     66  64  94 CALM      30.15S

$$

MDZ017>025-291300-
SOUTHERN MARYLAND

CITY           SKY/WX    TMP DP  RH WIND       PRES   REMARKS
PATUXENT RIVER PTSUNNY   71  66  84 CALM      30.15S
ST INIGOES     MOSUNNY   73  69  87 CALM      30.14S
LEONARDTOWN*   MOSUNNY   68  64  88 CALM      30.16F

$$

MDZ003>005-291300-
NORTH CENTRAL MARYLAND

CITY           SKY/WX    TMP DP  RH WIND       PRES   REMARKS
FREDERICK*     SUNNY     68  66  94 CALM      30.18R
HAGERSTOWN APT MOSUNNY   72  62  71 CALM      30.14S
WESTMINSTER*   MOSUNNY   72  68  88 S5        30.16S

$$

MDZ501>502-291300-
WESTERN MARYLAND

CITY           SKY/WX    TMP DP  RH WIND       PRES   REMARKS
OAKLAND*       NOT AVBL
CUMBERLAND*    CLOUDY    64  64 100 CALM      30.19R

$$

VAZ025>031-291300-
SHENANDOAH VALLEY

CITY           SKY/WX    TMP DP  RH WIND       PRES   REMARKS
WINCHESTER*    FAIR      68  63  83 CALM      30.15R
FRONT ROYAL*   FAIR      64  61  88 CALM      30.14S
LURAY*         FAIR      64  64 100 CALM      30.16S
NEW MARKET*      N/A     63  62  96 CALM      30.15S VSB 1/2
STAUNTON*      FAIR      63  61  93 CALM      30.19S
WAYNESBORO*    FAIR      67  60  80 CALM      30.18S

$$

WVZ021-048>050-054>055-291300-
EASTERN WEST VIRGINIA PANHANDLE

CITY           SKY/WX    TMP DP  RH WIND       PRES   REMARKS
MARTINSBURG    FAIR      68  63  84 CALM      30.14R
PETERSBURG*    PTSUNNY   65  64  94 CALM      30.17S FOG

$$

VAZ036>039-050-291300-
CENTRAL FOOTHILLS

CITY           SKY/WX    TMP DP  RH WIND       PRES   REMARKS
CHARLOTTESVILL FAIR      67  62  84 S3        30.15S
CULPEPER*      FAIR      69  65  89 CALM      30.16S
ORANGE*        FAIR      70  68  94 CALM      30.16F
GORDONSVILLE*  FAIR      69  64  86 CALM      30.15S
WARRENTON*     FAIR      69  61  75 CALM      30.15S

$$

VAZ055>057-291300-
NORTH AND CENTRAL PIEDMONT

CITY           SKY/WX    TMP DP  RH WIND       PRES   REMARKS
FREDERICKSBRG* FAIR      67  66  99 CALM      30.14S
STAFFORD*      FAIR      66  62  87 CALM      30.19S

$$

NCZ024-NYZ072-PAZ021-071-VAZ022-071-291300-
OTHER REGIONAL OBSERVATIONS

CITY           SKY/WX    TMP DP  RH WIND       PRES   REMARKS
NEW YORK CITY  SUNNY     74  57  55 VRB6      30.17S
PHILADELPHIA   PTSUNNY   69  60  73 S3        30.17S
PITTSBURGH     CLOUDY    71  65  81 S3        30.13R
ROANOKE        LGT RAIN  66  63  90 CALM      30.20R
RICHMOND       PTSUNNY   69  66  90 CALM      30.14S
RALEIGH        LGT RAIN  71  69  93 NE6       30.10S

$$

ANZ530>537-291300-
MARINE OBSERVATIONS

STATION/POSITION TIME  TEMP    WIND        PRES
                       AIR SEA DIR/SP/G
                 (UTC) (F)     (DEG/KT/KT) (MB)
THOMAS PT LIGHT  1200   68 67  180/  3/  3 1022.6R
BALT KEY BRIDGE  1100   68     150/  4/  4 1021.0R
COVE POINT       1100   67     200/  4/  4 1021.6R
LEWISETTA        1100   69 65  130/  2/  3 1020.5R
SOLOMONS ISLAND  1100   68 66   CALM  /  1   N/A
PINEY POINT      1100          120/  3/  3   N/A

$$





USA.gov is the U.S. government's official web portal to all federal, state and local government web resources and services.